Greenville, AL

11:57 PM CDT on September 24, 2017 (GMT -0500)
Greenville Municipal

Weather History for KPRN - November, 2011

Change the Weather History Date:

Sunday, November 6, 2011

  Actual Average Record
Temperature  
Mean Temperature 58 °F -  
Max Temperature 71 °F 67 °F 84 °F (1943)
Min Temperature 45 °F 42 °F 27 °F (1991)
Degree Days  
Heating Degree Days 7    
Growing Degree Days 8 (Base 50)    
Moisture  
Dew Point 45 °F    
Average Humidity 65    
Maximum Humidity 76    
Minimum Humidity 51    
Precipitation  
Precipitation 0.00 in - - ()
Sea Level Pressure  
Sea Level Pressure 30.28 in    
Wind  
Wind Speed 6 mph (ENE)    
Max Wind Speed 9 mph    
Max Gust Speed -    
Visibility 10 miles    
Events      
Averages and records for this station are not official NWS values.
T = Trace of Precipitation, MM = Missing Value Source: NWS Daily Summary

Daily Weather History Graph

Daily Weather History Graph

Search for Another Location

Airport or City:

Trip Planner

Search our weather history database for the weather conditions in past years. The results will help you decide how hot, cold, wet, or windy it might be!

Date:

Astronomy

Nov. 06, 2011 Rise Set
Actual Time 6:06 AM CST 4:52 PM CST
Civil Twilight 5:41 AM CST 5:18 PM CST
Nautical Twilight 5:12 AM CST 5:47 PM CST
Astronomical Twilight 4:43 AM CST 6:16 PM CST
Moon 2:26 PM CST (11/6) 2:24 AM CST (11/6)
Length of Visible Light 11h 36m
Length of Day
10h 46m
Waxing Gibbous, 86% of the Moon is Illuminated
Nov 6
Waxing Gibbous
Nov 10
Full
Nov 18
Last Quarter
Nov 25
New
Dec 2
First Quarter

Hourly Weather History & Observations

Time (CST) Temp. Windchill Dew Point Humidity Pressure Visibility Wind Dir Wind Speed Gust Speed Precip Events Conditions
12:56 AM 46.0 °F 43.9 °F 34.0 °F 63% 30.24 in 10.0 mi East 4.6 mph - N/A   Clear
1:56 AM 45.0 °F 41.8 °F 34.0 °F 65% 30.23 in 10.0 mi East 5.8 mph - N/A   Clear
1:56 AM 45.0 °F 41.2 °F 35.1 °F 68% 30.23 in 10.0 mi East 6.9 mph - N/A   Clear
2:56 AM 45.0 °F 42.6 °F 36.0 °F 71% 30.25 in 10.0 mi East 4.6 mph - N/A   Scattered Clouds
3:56 AM 46.9 °F - 37.9 °F 71% 30.26 in 10.0 mi East 6.9 mph - N/A   Overcast
4:56 AM 46.0 °F 43.1 °F 37.9 °F 73% 30.27 in 10.0 mi ENE 5.8 mph - N/A   Clear
5:56 AM 45.0 °F 42.6 °F 37.9 °F 76% 30.29 in 10.0 mi ENE 4.6 mph - N/A   Clear
6:56 AM 46.9 °F - 39.0 °F 74% 30.33 in 10.0 mi ENE 4.6 mph - N/A   Scattered Clouds
7:56 AM 51.1 °F - 39.9 °F 66% 30.35 in 10.0 mi ENE 8.1 mph - 0.00 in   Mostly Cloudy
8:56 AM 55.0 °F - 42.1 °F 62% 30.34 in 10.0 mi East 9.2 mph - N/A   Mostly Cloudy
9:56 AM 57.9 °F - 44.1 °F 60% 30.35 in 10.0 mi East 9.2 mph - N/A   Mostly Cloudy
10:56 AM 62.1 °F - 46.0 °F 56% 30.33 in 10.0 mi NE 8.1 mph - N/A   Partly Cloudy
11:56 AM 64.9 °F - 48.0 °F 54% 30.29 in 10.0 mi ENE 6.9 mph - N/A   Partly Cloudy
12:56 PM 68.0 °F - 51.1 °F 55% 30.25 in 10.0 mi ENE 8.1 mph - N/A   Scattered Clouds
1:56 PM 71.1 °F - 52.0 °F 51% 30.24 in 10.0 mi Variable 6.9 mph - N/A   Clear
2:56 PM 70.0 °F - 52.0 °F 53% 30.23 in 10.0 mi East 6.9 mph - N/A   Clear
3:56 PM 70.0 °F - 52.0 °F 53% 30.23 in 10.0 mi East 5.8 mph - N/A   Clear
4:56 PM 66.0 °F - 51.1 °F 59% 30.24 in 10.0 mi NE 3.5 mph - N/A   Clear
5:56 PM 62.1 °F - 51.1 °F 67% 30.26 in 10.0 mi NE 4.6 mph - N/A   Clear
6:56 PM 61.0 °F - 50.0 °F 67% 30.27 in 10.0 mi ENE 4.6 mph - N/A   Clear
7:56 PM 60.1 °F - 50.0 °F 69% 30.28 in 10.0 mi Calm Calm - N/A   Clear
8:56 PM 59.0 °F - 51.1 °F 75% 30.29 in 10.0 mi East 4.6 mph - N/A   Clear
9:56 PM 60.1 °F - 51.1 °F 72% 30.29 in 10.0 mi ENE 3.5 mph - N/A   Scattered Clouds
10:56 PM 60.1 °F - 51.1 °F 72% 30.29 in 10.0 mi East 3.5 mph - N/A   Mostly Cloudy